This demonstration page uses our WeatherBlox Daily Observations layout. Learn more.

Left ArrowRight Arrow

39.01783, -85.05884

Hourly Observations for July 25, 2021

Temp ( °F °C ) Dew Point ( °F °C ) Humidity (%) Winds ( mph kmh ) Pressure ( in mb ) Visibility ( mi km ) Precip ( " mm )
12:52 am 00:52 Partly Cloudy 76 24.4 68 20 77 77 SSW 8 13 29.92 1013 8 13 0.00 0.00
1:52 am 01:52 Cloudy 77 25 68 20 74 74 SW 9 15 29.92 1013 8 13 0.00 0.00
2:52 am 02:52 Partly Cloudy 77 25 68 20 74 74 SW 7 11 29.90 1013 8 13 0.00 0.00
3:52 am 03:52 Mostly Cloudy 78 25.6 69 20.6 74 74 SSW 8 13 29.88 1012 8 13 0.00 0.00
4:52 am 04:52 Cloudy 77 25 69 20.6 77 77 SW 9 15 29.91 1013 7 11 0.00 0.00
5:15 am 05:15 Cloudy with Light Rain 76 24.4 70 21.1 82 82 SSW 9 15 29.90 1013 2 3 0.08 2.03
5:24 am 05:24 Cloudy with Light Rain 75 23.9 70 21.1 84 84 SSW 6 9 29.91 1013 6 10 0.08 2.03
5:52 am 05:52 Cloudy 75 23.9 70 21.1 84 84 SSW 7 11 29.89 1012 7 11 0.08 2.03
6:52 am 06:52 Cloudy with Mist and Fog 74 23.3 70 21.1 88 88 S 5 7 29.90 1013 4 6 0.00 0.00
7:17 am 07:17 Cloudy with Mist and Fog 74 23.3 71 21.7 91 91 VRB 3 6 29.92 1013 4 6 0.00 0.00
7:52 am 07:52 Cloudy with Mist and Fog 75 23.9 71 21.7 88 88 Calm 29.93 1014 4 6 0.00 0.00
8:52 am 08:52 Mostly Cloudy with Mist and Fog 77 25 71 21.7 82 82 WSW 8 13 29.94 1014 6 10 0.00 0.00
9:52 am 09:52 Cloudy 80 26.7 71 21.7 74 74 W 8 13 29.94 1014 8 13 0.00 0.00
10:52 am 10:52 Cloudy 83 28.3 72 22.2 70 70 NW 5 7 29.93 1013 9 14 0.00 0.00
11:52 am 11:52 Mostly Cloudy 84 28.9 72 22.2 67 67 WSW 7 11 29.93 1014 10 16 0.00 0.00
12:52 pm 12:52 Mostly Cloudy 85 29.4 72 22.2 65 65 WSW 6 9 29.93 1013 10 16 0.00 0.00
1:52 pm 13:52 Mostly Cloudy 88 31.1 72 22.2 59 59 VRB 7 11 29.92 1013 10 16 0.00 0.00
2:52 pm 14:52 Mostly Cloudy 86 30 71 21.7 61 61 W 8 13 29.93 1013 10 16 0.00 0.00
3:52 pm 15:52 Mostly Cloudy 87 30.6 71 21.7 59 59 SW 7 11 29.92 1013 10 16 0.00 0.00
4:52 pm 16:52 Mostly Cloudy 88 31.1 73 22.8 61 61 WNW 10 17 29.90 1012 10 16 0.00 0.00
5:52 pm 17:52 Mostly Cloudy 87 30.6 73 22.8 63 63 W 10 17 29.89 1012 10 16 0.00 0.00
6:52 pm 18:52 Mostly Cloudy 87 30.6 73 22.8 63 63 W 12 19 29.88 1012 10 16 0.00 0.00
7:52 pm 19:52 Mostly Cloudy 85 29.4 73 22.8 68 68 W 6 9 29.88 1012 10 16 0.00 0.00
8:52 pm 20:52 Mostly Cloudy 83 28.3 73 22.8 72 72 WSW 5 7 29.90 1013 10 16 0.00 0.00
9:33 pm 21:33 Cloudy with Rain 84 28.9 73 22.8 70 70 NNW 5 7 29.89 1012 10 16 0.00 0.00
9:52 pm 21:52 Cloudy 84 28.9 72 22.2 67 67 Calm 29.90 1013 10 16 0.00 0.00
10:52 pm 22:52 Mostly Cloudy 82 27.8 71 21.7 69 69 NNW 5 7 29.91 1013 10 16 0.00 0.00
11:52 pm 23:52 Mostly Clear 80 26.7 71 21.7 74 74 NNW 3 6 29.92 1013 10 16 0.00 0.00

Powered by AerisWeather